DW5129 Weather Reports


time (UTC)temp
C
wind
direction
speed
KPH
gust
KPH
rain 1hr
cm
rain 24hr
cm
rain mn
cm
humidity
%
barometer
mb
20260504110551 6 242 0.0 0.0 0.00 0.08 0.08 95 1012.5
20260504100544 6 242 0.0 0.0 0.00 0.08 0.08 95 1012.6
20260504081535 7 242 0.0 0.0 0.00 0.08 0.08 94 1013.4
20260504081032 7 242 0.0 0.0 0.00 0.08 0.08 94 1013.4
20260504080534 7 242 0.0 0.0 0.00 0.08 0.08 94 1013.4
20260504050512 8 242 0.0 0.0 0.08 0.08 0.08 91 1014.9
20260504050012 8 242 0.0 0.0 0.08 0.08 0.08 91 1015.0
20260504045511 8 242 0.0 0.0 0.08 0.08 0.08 91 1015.0
20260504045011 8 260 0.0 0.0 0.08 0.08 0.08 90 1015.1
20260504044516 8 260 0.0 0.0 0.08 0.08 0.08 90 1015.1
20260504044010 8 260 0.0 0.0 0.08 0.08 0.08 90 1015.0
20260504043511 8 260 0.0 0.0 0.08 0.08 0.08 89 1014.9
20260504043013 8 260 0.0 0.0 0.08 0.08 0.08 87 1014.9
20260504042508 8 260 0.0 0.0 0.05 0.05 0.05 86 1015.2
20260504042008 8 260 0.0 0.0 0.05 0.05 0.05 84 1015.1
20260504041520 9 260 0.0 0.0 0.03 0.03 0.03 82 1015.2
20260504041005 9 260 0.0 0.0 0.03 0.03 0.03 79 1015.2
20260504040505 10 260 0.0 0.0 0.00 0.00 0.00 77 1015.2
20260504040002 10 260 0.0 0.0 0.00 0.00 0.00 74 1015.1
20260504035502 10 260 0.0 0.0 0.00 0.00 0.00 72 1015.2
20260504035001 10 261 0.0 0.0 0.00 0.00 0.00 70 1015.1
20260504034501 10 261 0.0 0.0 0.00 0.00 0.00 71 1015.0
20260504034002 10 260 0.0 0.0 0.00 0.00 0.00 72 1014.9
20260504033501 10 260 0.0 0.0 0.00 0.00 0.00 71 1014.9
20260504033001 10 260 0.0 0.0 0.00 0.00 0.00 70 1014.8
20260504032502 10 260 0.0 0.0 0.00 0.00 0.00 70 1014.9
20260504032002 10 260 0.0 0.0 0.00 0.00 0.00 69 1014.8
20260504031601 10 260 0.0 0.0 0.00 0.00 0.00 70 1014.7
20260504031100 10 260 0.0 0.0 0.00 0.00 0.00 69 1014.8
20260504030600 10 260 0.0 0.0 0.00 0.00 0.00 69 1014.8
20260504030100 10 260 0.0 0.0 0.00 0.00 0.00 69 1014.8
20260504025600 10 260 0.0 0.0 0.00 0.00 0.00 68 1014.8
20260504025100 10 275 0.0 0.0 0.00 0.00 0.00 67 1014.9
20260504024600 10 171 0.0 0.0 0.00 0.00 0.00 66 1014.9
20260504024059 10 171 0.0 0.0 0.00 0.00 0.00 66 1014.9
20260504023600 10 171 0.0 0.0 0.00 0.00 0.00 67 1014.9
20260504023100 10 171 0.0 0.0 0.00 0.00 0.00 68 1014.8
20260504022559 10 171 0.0 0.0 0.00 0.00 0.00 66 1014.8
20260504022058 10 171 0.0 0.0 0.00 0.00 0.00 66 1014.7
20260504021559 10 171 0.0 0.0 0.00 0.00 0.00 65 1014.7
20260504021101 10 171 0.0 0.0 0.00 0.00 0.00 66 1014.4
20260504020558 10 171 0.0 0.0 0.00 0.00 0.00 66 1014.3
20260504020129 10 171 0.0 0.0 0.00 0.00 0.00 65 1014.3
20260504015558 10 171 0.0 0.0 0.00 0.00 0.00 66 1014.4
20260504015058 10 171 0.0 0.0 0.00 0.00 0.00 64 1014.4
20260504014602 11 171 0.0 0.0 0.00 0.00 0.00 64 1014.3
20260504014057 10 171 0.0 0.0 0.00 0.00 0.00 65 1014.3
20260504013601 10 171 0.0 0.0 0.00 0.00 0.00 63 1014.3
20260504013123 10 171 0.0 0.0 0.00 0.00 0.00 63 1014.3
20260504012558 10 171 0.0 0.0 0.00 0.00 0.00 63 1014.4
20260504012058 10 171 0.0 0.0 0.00 0.00 0.00 64 1014.4
20260504011557 11 171 0.0 0.0 0.00 0.00 0.00 64 1014.4
20260504011056 11 171 0.0 0.0 0.00 0.00 0.00 62 1014.3
20260504010556 11 171 0.0 0.0 0.00 0.00 0.00 61 1014.4
20260504010100 11 171 0.0 0.0 0.00 0.00 0.00 60 1014.6
20260504005556 11 171 0.0 0.0 0.00 0.00 0.00 59 1014.6
20260504005056 11 171 0.0 0.0 0.00 0.00 0.00 60 1014.5
20260504004556 11 171 0.0 0.0 0.00 0.00 0.00 61 1014.4
20260504004056 11 171 0.0 0.0 0.00 0.00 0.00 60 1014.5
20260504003556 11 171 0.0 0.0 0.00 0.00 0.00 59 1014.5
20260504003056 11 171 0.0 0.0 0.00 0.00 0.00 57 1014.3
20260504002556 12 171 0.0 0.0 0.00 0.00 0.00 57 1014.3
20260504002056 12 171 0.0 0.0 0.00 0.00 0.00 56 1014.3
20260504001555 12 171 0.0 0.0 0.00 0.00 0.00 55 1014.4
20260504001054 12 171 0.0 0.0 0.00 0.00 0.00 55 1014.3
20260504000556 12 171 0.0 0.0 0.00 0.00 0.00 55 1014.2
20260504000058 13 171 0.0 0.0 0.00 0.00 0.00 55 1014.4
20260503235554 13 171 0.0 0.0 0.00 0.00 0.00 55 1014.3
20260503235054 13 171 0.0 0.0 0.00 0.00 0.00 52 1014.2
20260503234554 14 171 0.0 0.0 0.00 0.00 0.00 52 1014.2
20260503234054 14 171 0.0 0.0 0.00 0.00 0.00 52 1014.1
20260503233556 15 171 0.0 0.0 0.00 0.00 0.00 48 1014.1
20260503233054 15 171 0.0 1.6 0.00 0.00 0.00 44 1014.3
20260503232553 15 171 0.0 1.6 0.00 0.00 0.00 42 1014.3
20260503232052 16 269 0.0 0.0 0.00 0.00 0.00 42 1014.4
20260503231551 16 270 0.0 1.6 0.00 0.00 0.00 37 1014.4
20260503231054 16 265 0.0 1.6 0.00 0.00 0.00 34 1014.6
20260503230552 16 265 0.0 6.4 0.00 0.00 0.00 33 1014.6
20260503230049 17 263 1.6 6.4 0.00 0.00 0.00 34 1014.8
20260503225551 17 317 0.0 4.8 0.00 0.00 0.00 35 1014.9
20260503225049 17 175 0.0 8.0 0.00 0.00 0.00 35 1014.8
20260503224558 17 290 0.0 8.0 0.00 0.00 0.00 35 1014.8
20260503224050 17 159 1.6 6.4 0.00 0.00 0.00 35 1014.8
20260503223549 17 149 0.0 4.8 0.00 0.00 0.00 35 1015.0
20260503223049 16 248 0.0 3.2 0.00 0.00 0.00 36 1015.1
20260503222548 17 261 0.0 4.8 0.00 0.00 0.00 34 1015.1
20260503222051 17 167 0.0 12.9 0.00 0.00 0.00 34 1015.1
20260503221558 17 144 1.6 12.9 0.00 0.00 0.00 36 1014.8
20260503221051 17 325 0.0 17.7 0.00 0.00 0.00 39 1015.0
20260503220547 17 190 0.0 11.3 0.00 0.00 0.00 33 1015.0
20260503220047 17 320 1.6 8.0 0.00 0.00 0.00 35 1015.1
20260503215548 17 196 0.0 1.6 0.00 0.00 0.00 34 1015.0
20260503215046 17 144 0.0 9.7 0.00 0.00 0.00 38 1015.0
20260503214546 17 224 0.0 8.0 0.00 0.00 0.00 35 1015.1
20260503214046 17 265 0.0 14.5 0.00 0.00 0.00 35 1015.1
20260503213546 16 281 3.2 14.5 0.00 0.00 0.00 36 1015.2
20260503213047 16 315 3.2 8.0 0.00 0.00 0.00 35 1015.1
20260503212546 17 161 1.6 8.0 0.00 0.00 0.00 37 1015.3
20260503212046 17 130 3.2 8.0 0.00 0.00 0.00 33 1015.0
20260503211544 17 36 0.0 4.8 0.00 0.00 0.00 39 1015.1
20260503211044 17 329 0.0 4.8 0.00 0.00 0.00 38 1015.1
20260503210544 17 264 0.0 11.3 0.00 0.00 0.00 41 1015.3
20260503210043 17 263 0.0 11.3 0.00 0.00 0.00 36 1015.4
20260503205542 17 226 0.0 8.0 0.00 0.00 0.00 34 1015.4
20260503205042 17 90 1.6 12.9 0.00 0.00 0.00 34 1015.4
20260503204549 17 151 1.6 12.9 0.00 0.00 0.00 37 1015.5
20260503204041 17 136 0.0 8.0 0.00 0.00 0.00 34 1015.5
20260503203540 17 179 1.6 8.0 0.00 0.00 0.00 34 1015.7
20260503203044 17 324 0.0 8.0 0.00 0.00 0.00 38 1015.7
20260503202539 16 101 0.0 4.8 0.00 0.00 0.00 39 1015.8
20260503202038 17 274 0.0 6.4 0.00 0.00 0.00 38 1015.9
20260503201537 16 243 1.6 8.0 0.00 0.00 0.00 37 1016.2
20260503201036 16 279 0.0 8.0 0.00 0.00 0.00 32 1016.1
20260503200536 16 309 0.0 9.7 0.00 0.00 0.00 39 1016.2
20260503200036 16 340 0.0 14.5 0.00 0.00 0.00 36 1016.3
20260503195536 16 313 4.8 14.5 0.00 0.00 0.00 37 1016.3
20260503195035 16 345 0.0 17.7 0.00 0.00 0.00 43 1016.6
20260503194538 16 355 3.2 17.7 0.00 0.00 0.00 36 1016.8
20260503194032 16 202 0.0 11.3 0.00 0.00 0.00 38 1016.8
20260503193532 16 234 0.0 11.3 0.00 0.00 0.00 38 1017.0
20260503193043 16 211 1.6 8.0 0.00 0.00 0.00 38 1017.0
20260503192530 16 161 1.6 9.7 0.00 0.00 0.00 39 1017.0
20260503192034 16 178 0.0 9.7 0.00 0.00 0.00 38 1017.2
20260503191559 16 315 0.0 14.5 0.00 0.00 0.00 37 1017.3
20260503191031 16 213 0.0 14.5 0.00 0.00 0.00 37 1017.3
20260503190532 16 329 0.0 6.4 0.00 0.00 0.00 41 1017.3
20260503190032 16 342 0.0 9.7 0.00 0.00 0.00 42 1017.4
20260503185530 16 26 1.6 9.7 0.00 0.00 0.00 37 1017.5
20260503185026 16 63 0.0 3.2 0.00 0.00 0.00 42 1017.7
20260503184526 16 294 0.0 9.7 0.00 0.00 0.00 37 1018.0
20260503184026 16 319 1.6 9.7 0.00 0.00 0.00 36 1018.0
20260503183530 16 31 0.0 8.0 0.00 0.00 0.00 45 1018.1
20260503183024 16 277 0.0 14.5 0.00 0.00 0.00 44 1018.2
20260503182524 15 319 4.8 14.5 0.00 0.00 0.00 37 1018.1
20260503182023 15 303 0.0 12.9 0.00 0.00 0.00 47 1018.2
20260503181527 15 313 0.0 11.3 0.00 0.00 0.00 42 1018.3
20260503181022 15 117 0.0 3.2 0.00 0.00 0.00 42 1018.4
20260503180521 15 169 0.0 3.2 0.00 0.00 0.00 44 1018.5
20260503180026 15 316 0.0 4.8 0.00 0.00 0.00 43 1018.6
20260503175520 15 227 0.0 4.8 0.00 0.00 0.00 40 1018.6
20260503175021 14 195 0.0 6.4 0.00 0.00 0.00 39 1018.7
20260503174520 14 234 0.0 12.9 0.00 0.00 0.00 40 1018.8
20260503174020 14 251 3.2 19.3 0.00 0.00 0.00 40 1018.8
20260503173520 15 338 8.0 19.3 0.00 0.00 0.00 44 1018.8
20260503173019 15 355 0.0 4.8 0.00 0.00 0.00 46 1018.9
20260503172520 14 244 0.0 4.8 0.00 0.00 0.00 39 1019.0
20260503172017 14 305 0.0 9.7 0.00 0.00 0.00 44 1018.9
20260503171517 14 318 1.6 14.5 0.00 0.00 0.00 41 1019.0
20260503171016 14 17 4.8 14.5 0.00 0.00 0.00 43 1019.1
20260503170515 14 302 0.0 12.9 0.00 0.00 0.00 45 1019.2
20260503150552 12 234 0.0 14.5 0.00 0.00 0.00 48 1020.4
20260503131022 7 34 0.0 3.2 0.00 0.00 0.00 79 1020.7
20260503130520 6 76 0.0 3.2 0.00 0.00 0.00 80 1020.8